TimeEDT,TemperatureF,Dew PointF,Humidity,Sea Level PressureIn,VisibilityMPH,Wind Direction,Wind SpeedMPH,Gust SpeedMPH,PrecipitationIn,Events,Conditions,WindDirDegrees,DateUTC
12:53 AM,37.9,34.0,86,30.36,10.0,ENE,3.5,-,N/A,,Clear,70,2013-10-29 04:53:00
1:53 AM,37.0,34.0,89,30.36,10.0,Calm,Calm,-,N/A,,Clear,0,2013-10-29 05:53:00
2:53 AM,34.0,32.0,92,30.37,9.0,NE,3.5,-,N/A,,Clear,50,2013-10-29 06:53:00
3:53 AM,35.1,32.0,89,30.38,10.0,Calm,Calm,-,N/A,,Clear,0,2013-10-29 07:53:00
4:53 AM,34.0,30.9,89,30.38,8.0,Calm,Calm,-,N/A,,Clear,0,2013-10-29 08:53:00
5:41 AM,33.8,30.2,87,30.36,10.0,NE,3.5,-,N/A,,Mostly Cloudy,40,2013-10-29 09:41:00
5:53 AM,34.0,32.0,92,30.38,10.0,Calm,Calm,-,N/A,,Overcast,0,2013-10-29 09:53:00
6:15 AM,33.8,30.2,87,30.37,10.0,ENE,3.5,-,N/A,,Scattered Clouds,70,2013-10-29 10:15:00
6:53 AM,34.0,30.9,89,30.39,10.0,ENE,3.5,-,N/A,,Clear,60,2013-10-29 10:53:00
7:53 AM,32.0,30.0,92,30.39,10.0,ENE,3.5,-,N/A,,Clear,60,2013-10-29 11:53:00
8:53 AM,33.1,30.0,89,30.41,10.0,Calm,Calm,-,N/A,,Clear,0,2013-10-29 12:53:00
9:53 AM,37.9,34.0,86,30.41,10.0,East,8.1,-,N/A,,Clear,90,2013-10-29 13:53:00
10:53 AM,44.1,37.9,79,30.40,10.0,ESE,6.9,-,N/A,,Clear,110,2013-10-29 14:53:00
11:53 AM,48.9,39.0,69,30.39,10.0,SE,5.8,-,N/A,,Clear,130,2013-10-29 15:53:00
12:53 PM,52.0,39.0,61,30.37,10.0,ESE,10.4,-,N/A,,Clear,120,2013-10-29 16:53:00
1:53 PM,54.0,39.0,57,30.33,10.0,SE,10.4,-,N/A,,Clear,140,2013-10-29 17:53:00
2:53 PM,54.0,39.0,57,30.30,10.0,SSE,5.8,-,N/A,,Clear,150,2013-10-29 18:53:00
3:53 PM,55.0,39.0,55,30.28,9.0,ESE,6.9,-,N/A,,Partly Cloudy,120,2013-10-29 19:53:00
4:53 PM,55.0,39.0,55,30.27,10.0,SSE,8.1,-,N/A,,Clear,150,2013-10-29 20:53:00
5:53 PM,53.1,37.9,57,30.26,10.0,SE,8.1,-,N/A,,Clear,130,2013-10-29 21:53:00
6:53 PM,48.9,37.9,66,30.25,10.0,ESE,5.8,-,N/A,,Clear,110,2013-10-29 22:53:00
7:53 PM,48.0,39.0,71,30.25,10.0,ESE,5.8,-,N/A,,Clear,110,2013-10-29 23:53:00
8:53 PM,48.9,39.0,69,30.24,10.0,ESE,5.8,-,N/A,,Clear,120,2013-10-30 00:53:00
9:53 PM,48.0,39.0,71,30.23,10.0,SE,5.8,-,N/A,,Clear,130,2013-10-30 01:53:00
10:53 PM,48.0,39.0,71,30.22,10.0,SE,8.1,-,N/A,,Clear,130,2013-10-30 02:53:00
11:53 PM,46.9,39.0,74,30.22,10.0,Calm,Calm,-,N/A,,Overcast,0,2013-10-30 03:53:00